Waarnemingen

Advertentie
Mijn weer
Ploumanach, Frankrijk (7117): temperatuur & dauwpunt: 23.05.2020 02:00:00 - 29.05.2020 02:00:00 (CEST)Ploumanach, Frankrijk (7117): windsnelheid & windstoten: 23.05.2020 02:00:00 - 29.05.2020 02:00:00 (CEST)Ploumanach, Frankrijk (7117): windrichting: 23.05.2020 02:00:00 - 29.05.2020 02:00:00 (CEST)Ploumanach, Frankrijk (7117): luchtdruk: 23.05.2020 02:00:00 - 29.05.2020 02:00:00 (CEST)Ploumanach, Frankrijk (7117): zicht: 23.05.2020 02:00:00 - 29.05.2020 02:00:00 (CEST)Ploumanach, Frankrijk (7117): neerslag: 23.05.2020 02:00:00 - 29.05.2020 02:00:00 (CEST)
Datum & Tijd tt [°C] td [°C] ff [km/u] ff [kn] fx [km/u] fx [kn] dd ppp [hPa] vv [km] rr [mm]
29.05.2020 02:00:00 13,5 11,0 13 7 25 14 O 1025,6 - 0,0
29.05.2020 01:00:00 13,9 10,5 16 8 30 16 O 1025,9 - 0,0
29.05.2020 00:00:00 14,2 9,8 14 7 29 16 O 1026,3 - 0,0
28.05.2020 23:00:00 14,4 10,2 16 9 31 17 O 1026,5 - 0,0
28.05.2020 22:00:00 14,6 11,0 16 9 29 15 O 1026,5 - 0,0
28.05.2020 21:00:00 15,3 11,1 16 9 30 16 ONO 1026,5 - 0,0
28.05.2020 20:00:00 16,0 11,0 18 10 37 20 ONO 1026,6 15 0,0
28.05.2020 19:00:00 16,2 12,2 22 12 41 22 ONO 1027,0 - 0,0
28.05.2020 18:00:00 16,1 12,5 28 15 41 22 ONO 1027,3 - 0,0
28.05.2020 17:00:00 16,2 12,2 31 17 46 25 NO 1027,6 10 0,0
28.05.2020 16:00:00 16,4 12,2 30 16 46 25 ONO 1028,3 - 0,0
28.05.2020 15:00:00 17,0 11,5 27 15 50 27 ONO 1028,7 - 0,0
28.05.2020 14:00:00 16,8 11,5 31 17 47 25 ONO 1029,1 12 0,0
28.05.2020 13:00:00 17,3 11,3 29 16 49 26 ONO 1029,7 - 0,0
28.05.2020 12:00:00 17,0 12,5 27 15 42 23 ONO 1030,2 - 0,0
28.05.2020 11:00:00 19,6 11,1 24 13 41 22 O 1030,4 20 0,0
28.05.2020 10:00:00 18,7 10,5 18 10 35 19 O 1030,9 - 0,0
28.05.2020 09:00:00 16,9 12,2 18 10 31 17 O 1031,0 - 0,0
28.05.2020 08:00:00 15,4 12,3 16 9 22 12 O 1031,2 15 0,0
28.05.2020 07:00:00 13,8 12,0 12 6 21 11 O 1031,0 - 0,0
28.05.2020 06:00:00 13,1 11,7 12 6 24 13 O 1031,5 - 0,0
28.05.2020 05:00:00 13,5 11,4 13 7 24 13 O 1031,4 - 0,0
28.05.2020 04:00:00 13,7 11,4 13 7 22 12 O 1031,6 - 0,0
28.05.2020 03:00:00 14,0 11,2 14 7 21 11 O 1031,9 - 0,0
28.05.2020 02:00:00 14,7 10,7 11 6 21 11 O 1032,2 - 0,0
28.05.2020 01:00:00 14,8 10,8 11 6 26 14 O 1032,5 - 0,0
28.05.2020 00:00:00 15,1 11,7 16 9 27 14 O 1032,4 - 0,0
27.05.2020 23:00:00 14,1 12,0 9 5 21 11 O 1032,7 - 0,0
27.05.2020 22:00:00 14,4 12,1 13 7 21 12 ONO 1032,4 - 0,0
27.05.2020 21:00:00 16,2 12,0 12 7 24 13 ONO 1032,3 - 0,0
27.05.2020 20:00:00 16,7 12,0 16 9 23 13 O 1032,3 20 0,0
27.05.2020 19:00:00 17,3 12,6 10 5 20 11 O 1032,6 - 0,0
27.05.2020 18:00:00 17,9 12,1 13 7 19 11 O 1033,0 - 0,0
27.05.2020 17:00:00 17,4 13,3 11 6 18 10 O 1033,5 18 0,0
27.05.2020 16:00:00 17,7 13,6 17 9 27 15 NO 1033,6 - 0,0
27.05.2020 15:00:00 17,9 12,8 13 7 21 11 NO 1033,7 - 0,0
27.05.2020 14:00:00 17,7 13,0 8 4 22 12 ONO 1034,1 20 0,0
27.05.2020 13:00:00 17,2 11,2 11 6 25 13 ONO 1034,2 - 0,0
27.05.2020 12:00:00 17,5 11,5 11 6 18 10 NO 1034,5 - 0,0
27.05.2020 11:00:00 16,2 12,0 7 4 12 6 ONO 1034,6 20 0,0
27.05.2020 10:00:00 16,4 11,8 6 3 14 7 ONO 1034,9 - 0,0
27.05.2020 09:00:00 15,5 10,9 9 5 11 6 O 1034,9 - 0,0
27.05.2020 08:00:00 15,1 10,3 8 4 11 6 O 1034,6 20 0,0
27.05.2020 07:00:00 13,0 9,3 7 4 11 6 O 1034,6 - 0,0
27.05.2020 06:00:00 12,4 8,7 9 5 12 7 O 1034,5 - 0,0
27.05.2020 05:00:00 12,5 8,8 8 4 12 7 O 1034,5 - 0,0
27.05.2020 04:00:00 12,7 9,0 9 5 13 7 O 1034,7 - 0,0
27.05.2020 03:00:00 12,9 9,2 8 5 13 7 O 1035,0 - 0,0
27.05.2020 02:00:00 12,6 9,8 8 4 15 8 O 1035,0 - 0,0
27.05.2020 01:00:00 13,3 10,1 11 6 19 11 ONO 1035,0 - 0,0
27.05.2020 00:00:00 13,5 10,1 10 5 23 13 O 1035,2 - 0,0
26.05.2020 23:00:00 14,1 9,9 13 7 22 12 ONO 1035,4 - 0,0
26.05.2020 22:00:00 13,8 10,4 9 5 14 7 O 1035,2 - 0,0
26.05.2020 21:00:00 14,8 11,6 8 4 14 7 ONO 1035,2 - 0,0
26.05.2020 20:00:00 15,5 11,9 10 5 15 8 O 1035,0 20 0,0
26.05.2020 19:00:00 16,5 12,5 8 5 14 8 ONO 1035,4 - 0,0
26.05.2020 18:00:00 16,9 12,2 8 5 16 9 ONO 1035,6 - 0,0
26.05.2020 17:00:00 17,3 12,6 9 5 16 9 ONO 1035,9 20 0,0
26.05.2020 16:00:00 17,2 12,9 9 5 16 8 NO 1036,2 - 0,0
26.05.2020 15:00:00 17,2 12,5 10 5 15 8 NO 1036,2 - 0,0
26.05.2020 14:00:00 17,1 12,6 8 5 15 8 ONO 1036,4 20 0,0
26.05.2020 13:00:00 16,5 12,5 8 4 12 6 NO 1036,6 - 0,0
26.05.2020 12:00:00 16,1 12,1 8 4 13 7 ONO 1036,7 - 0,0
26.05.2020 11:00:00 16,1 11,9 8 4 13 7 NO 1036,8 20 0,0
26.05.2020 10:00:00 16,3 12,5 9 5 12 6 NNO 1036,6 - 0,0
26.05.2020 09:00:00 14,8 10,4 8 4 15 8 ONO 1036,3 - 0,0
26.05.2020 08:00:00 14,1 10,9 8 4 12 6 O 1035,9 20 0,0
26.05.2020 07:00:00 12,2 10,6 5 3 9 5 O 1035,8 - 0,0
26.05.2020 06:00:00 11,4 10,1 7 4 13 7 O 1035,5 - 0,0
26.05.2020 05:00:00 11,4 10,3 8 4 11 6 ONO 1035,3 - 0,0
26.05.2020 04:00:00 11,7 10,8 8 5 10 5 NNO 1035,5 - 0,0
26.05.2020 03:00:00 11,9 10,6 6 4 9 5 NO 1035,5 - 0,0
26.05.2020 02:00:00 12,2 9,6 5 3 13 7 ONO 1035,6 - 0,0
26.05.2020 01:00:00 12,5 8,6 10 6 17 9 O 1035,6 - 0,0
26.05.2020 00:00:00 12,3 10,4 10 5 17 9 O 1035,5 - 0,0
25.05.2020 23:00:00 12,1 10,8 6 4 11 6 N 1035,6 - 0,0
25.05.2020 22:00:00 13,0 10,2 7 4 16 8 O 1035,1 - 0,0
25.05.2020 21:00:00 14,6 10,4 12 6 18 10 O 1034,7 - 0,0
25.05.2020 20:00:00 15,2 11,4 12 6 16 9 O 1034,5 15 0,0
25.05.2020 19:00:00 15,9 12,5 11 6 18 10 O 1034,8 - 0,0
25.05.2020 18:00:00 16,4 12,6 14 7 19 11 ONO 1034,8 - 0,0
25.05.2020 17:00:00 16,2 11,4 17 9 29 16 NO 1034,9 15 0,0
25.05.2020 16:00:00 16,7 12,6 16 9 27 15 NO 1034,9 - 0,0
25.05.2020 15:00:00 16,7 12,8 16 9 23 12 NO 1034,9 - 0,0
25.05.2020 14:00:00 16,4 12,7 14 7 20 11 NO 1035,0 15 0,0
25.05.2020 13:00:00 15,9 12,6 10 6 16 9 NO 1035,2 - 0,0
25.05.2020 12:00:00 15,4 12,7 10 6 17 9 ONO 1035,2 - 0,0
25.05.2020 11:00:00 15,8 12,5 8 5 14 8 NO 1035,3 15 0,0
25.05.2020 10:00:00 14,5 11,5 6 3 16 8 NO 1035,2 - 0,0
25.05.2020 09:00:00 13,6 10,9 8 4 14 7 O 1035,0 - 0,0
25.05.2020 08:00:00 11,6 9,8 7 4 18 10 O 1034,8 8 0,0
25.05.2020 07:00:00 10,7 10,7 14 8 21 11 O 1034,4 - 0,0
25.05.2020 06:00:00 10,2 10,0 8 5 12 6 O 1034,4 - 0,0
25.05.2020 05:00:00 10,4 10,1 4 2 5 3 ONO 1034,5 - 0,0
25.05.2020 04:00:00 10,4 9,8 0 0 4 2 N 1034,6 - 0,0
25.05.2020 03:00:00 10,8 10,3 4 2 8 4 O 1034,8 - 0,0
25.05.2020 02:00:00 10,9 10,3 6 3 13 7 ONO 1035,0 - 0,0
25.05.2020 01:00:00 11,0 10,4 5 3 10 6 ONO 1034,9 - 0,0
25.05.2020 00:00:00 11,3 10,5 8 4 11 6 NO 1035,0 - 0,0
24.05.2020 23:00:00 11,5 10,6 9 5 11 6 NO 1034,8 - 0,0
24.05.2020 22:00:00 11,9 10,3 5 3 13 7 ONO 1034,8 - 0,0
24.05.2020 21:00:00 13,5 10,8 7 4 14 8 ONO 1034,7 - 0,0
24.05.2020 20:00:00 14,1 10,9 11 6 19 10 NO 1034,7 15 0,0
24.05.2020 19:00:00 14,6 10,6 16 9 21 11 NO 1035,0 - 0,0
24.05.2020 18:00:00 16,4 11,1 11 6 17 9 NNO 1035,0 - 0,0
24.05.2020 17:00:00 16,6 10,9 11 6 19 10 N 1035,2 13 0,0
24.05.2020 16:00:00 15,9 10,4 11 6 22 12 NW 1035,1 - 0,0
24.05.2020 15:00:00 15,7 10,2 10 5 24 13 NW 1035,3 - 0,0
24.05.2020 14:00:00 15,9 10,9 13 7 22 12 WNW 1035,0 13 0,0
24.05.2020 13:00:00 15,9 10,4 11 6 23 12 W 1034,8 - 0,0
24.05.2020 12:00:00 14,8 10,2 16 8 28 15 WNW 1035,4 - 0,0
24.05.2020 11:00:00 14,4 10,0 14 7 26 14 W 1035,3 8 0,0
24.05.2020 10:00:00 14,3 10,3 15 8 24 13 W 1035,4 - 0,0
24.05.2020 09:00:00 13,3 10,3 14 8 24 13 W 1034,9 - 0,0
24.05.2020 08:00:00 11,3 10,0 11 6 20 11 ZW 1034,4 8 0,0
24.05.2020 07:00:00 9,9 9,1 13 7 21 11 ZZW 1033,8 - 0,0
24.05.2020 06:00:00 11,0 9,3 11 6 22 12 WZW 1033,3 - 0,0
24.05.2020 05:00:00 11,0 8,9 13 7 26 14 W 1033,2 - 0,0
24.05.2020 04:00:00 11,3 9,0 15 8 28 15 W 1033,3 - 0,0
24.05.2020 03:00:00 11,5 9,4 15 8 30 16 W 1033,5 - 0,0
24.05.2020 02:00:00 11,6 9,3 18 10 34 18 W 1033,4 - 0,0
24.05.2020 01:00:00 11,6 9,2 17 9 35 19 WZW 1033,5 - 0,0
24.05.2020 00:00:00 11,8 9,2 19 10 37 20 W 1033,3 - 0,0
23.05.2020 23:00:00 11,9 10,1 17 9 33 18 WZW 1032,9 - 0,0
23.05.2020 22:00:00 12,3 9,8 22 12 40 22 WZW 1032,2 - 0,0
23.05.2020 21:00:00 13,5 10,1 23 12 42 23 W 1032,0 - 0,0
23.05.2020 20:00:00 14,5 10,1 26 14 46 25 W 1031,6 8 0,0
23.05.2020 19:00:00 15,4 10,4 29 15 59 32 W 1031,3 - 0,0
23.05.2020 18:00:00 15,8 10,3 31 17 53 29 W 1030,8 - 0,0
23.05.2020 17:00:00 16,5 11,0 30 16 56 31 W 1030,4 10 0,0
23.05.2020 16:00:00 16,4 10,7 32 17 63 34 W 1030,0 - 0,0
23.05.2020 15:00:00 16,0 9,9 34 19 59 32 WZW 1029,7 - 0,0
23.05.2020 14:00:00 16,4 10,5 30 16 59 32 W 1029,3 10 0,0
23.05.2020 13:00:00 16,4 10,5 30 16 63 34 W 1029,1 - 0,0
23.05.2020 12:00:00 15,5 10,0 35 19 61 33 W 1028,7 - 0,0
23.05.2020 11:00:00 15,2 9,5 30 16 54 29 WZW 1028,1 10 0,0
23.05.2020 10:00:00 14,5 9,7 32 18 52 28 WZW 1027,3 - 0,0
23.05.2020 09:00:00 13,7 10,1 24 13 43 23 WZW 1026,9 - 0,0
23.05.2020 08:00:00 12,6 9,8 21 11 36 19 WZW 1026,1 8 0,0
23.05.2020 07:00:00 11,7 9,8 22 12 37 20 WZW 1026,1 - 0,0
23.05.2020 06:00:00 11,8 9,7 21 11 40 22 WZW 1025,6 - 0,0
23.05.2020 05:00:00 12,1 9,8 20 11 38 20 WZW 1025,1 - 0,0
23.05.2020 04:00:00 12,3 9,8 22 12 39 21 WZW 1024,7 - 0,0
23.05.2020 03:00:00 12,8 9,8 22 12 38 21 WZW 1024,7 - 0,0
23.05.2020 02:00:00 13,1 10,3 19 11 31 17 ZW 1024,6 - 0,0

tt = temperatuur
td = dauwpunt
ff = windsnelheid
fx = windstoten
dd = windrichting
ppp = luchtdruk
vv = zicht
rr = neerslag

Weerstations in de omgeving